TimeEDT,TemperatureF,Dew PointF,Humidity,Sea Level PressureIn,VisibilityMPH,Wind Direction,Wind SpeedMPH,Gust SpeedMPH,PrecipitationIn,Events,Conditions,WindDirDegrees,DateUTC
12:14 AM,39.2,26.6,61,29.82,10.0,Calm,Calm,-,N/A,,Overcast,0,2012-11-02 04:14:00
12:35 AM,37.4,28.4,70,29.83,10.0,Calm,Calm,-,N/A,,Overcast,0,2012-11-02 04:35:00
12:55 AM,37.4,30.2,75,29.83,10.0,Calm,Calm,-,N/A,,Overcast,0,2012-11-02 04:55:00
1:14 AM,39.2,28.4,65,29.83,10.0,Calm,Calm,-,N/A,,Overcast,0,2012-11-02 05:14:00
1:35 AM,39.2,28.4,65,29.84,10.0,Calm,Calm,-,N/A,,Overcast,0,2012-11-02 05:35:00
1:55 AM,39.2,28.4,65,29.84,10.0,Calm,Calm,-,N/A,,Overcast,0,2012-11-02 05:55:00
2:14 AM,39.2,28.4,65,29.83,10.0,Calm,Calm,-,N/A,,Overcast,0,2012-11-02 06:14:00
2:35 AM,37.4,28.4,70,29.83,10.0,Calm,Calm,-,N/A,,Mostly Cloudy,0,2012-11-02 06:35:00
2:55 AM,37.4,28.4,70,29.84,10.0,North,5.8,-,N/A,,Mostly Cloudy,350,2012-11-02 06:55:00
3:15 AM,37.4,30.2,75,29.85,10.0,North,6.9,-,N/A,,Clear,350,2012-11-02 07:15:00
3:35 AM,37.4,30.2,75,29.85,10.0,NNW,6.9,-,N/A,,Clear,340,2012-11-02 07:35:00
3:54 AM,37.4,30.2,75,29.86,10.0,NNW,5.8,-,N/A,,Scattered Clouds,330,2012-11-02 07:54:00
4:15 AM,37.4,30.2,75,29.86,10.0,NNW,5.8,-,N/A,,Overcast,330,2012-11-02 08:15:00
4:35 AM,37.4,30.2,75,29.87,10.0,NNW,5.8,-,N/A,,Overcast,330,2012-11-02 08:35:00
4:54 AM,37.4,30.2,75,29.87,10.0,NNW,6.9,-,N/A,,Mostly Cloudy,330,2012-11-02 08:54:00
5:15 AM,37.4,28.4,70,29.87,10.0,NNW,6.9,-,N/A,,Scattered Clouds,330,2012-11-02 09:15:00
5:35 AM,35.6,28.4,75,29.88,10.0,NNW,4.6,-,N/A,,Clear,330,2012-11-02 09:35:00
5:54 AM,35.6,26.6,70,29.88,10.0,NW,3.5,-,N/A,,Clear,310,2012-11-02 09:54:00
6:15 AM,35.6,26.6,70,29.89,10.0,WNW,4.6,-,N/A,,Clear,300,2012-11-02 10:15:00
6:35 AM,33.8,28.4,81,29.89,10.0,NW,3.5,-,N/A,,Clear,310,2012-11-02 10:35:00
6:54 AM,33.8,26.6,75,29.90,10.0,NNW,5.8,-,N/A,,Clear,330,2012-11-02 10:54:00
7:15 AM,35.6,26.6,70,29.90,10.0,NW,8.1,-,N/A,,Clear,320,2012-11-02 11:15:00
7:35 AM,33.8,26.6,75,29.91,10.0,NW,8.1,-,N/A,,Clear,320,2012-11-02 11:35:00
7:54 AM,33.8,26.6,75,29.91,10.0,NW,8.1,-,N/A,,Clear,320,2012-11-02 11:54:00
8:15 AM,33.8,26.6,75,29.92,10.0,NW,4.6,-,N/A,,Clear,310,2012-11-02 12:15:00
8:35 AM,33.8,26.6,75,29.93,10.0,NW,4.6,-,N/A,,Clear,310,2012-11-02 12:35:00
8:54 AM,33.8,26.6,75,29.93,10.0,WNW,4.6,-,N/A,,Clear,300,2012-11-02 12:54:00
9:15 AM,35.6,26.6,70,29.95,10.0,NW,6.9,-,N/A,,Clear,320,2012-11-02 13:15:00
9:35 AM,37.4,28.4,70,29.96,10.0,NW,4.6,-,N/A,,Clear,310,2012-11-02 13:35:00
9:55 AM,37.4,28.4,70,29.96,10.0,North,9.2,16.1,N/A,,Clear,350,2012-11-02 13:55:00
10:14 AM,39.2,30.2,70,29.97,10.0,NNW,9.2,17.3,N/A,,Clear,340,2012-11-02 14:14:00
10:35 AM,39.2,30.2,70,29.98,10.0,North,12.7,19.6,N/A,,Clear,360,2012-11-02 14:35:00
10:54 AM,41.0,30.2,65,29.98,10.0,NNW,12.7,18.4,N/A,,Scattered Clouds,340,2012-11-02 14:54:00
11:15 AM,39.2,30.2,70,29.99,10.0,NNW,9.2,18.4,N/A,,Mostly Cloudy,340,2012-11-02 15:15:00
11:35 AM,41.0,28.4,61,29.99,10.0,North,11.5,18.4,N/A,,Mostly Cloudy,350,2012-11-02 15:35:00
11:54 AM,42.8,28.4,57,30.00,10.0,North,11.5,16.1,N/A,,Scattered Clouds,350,2012-11-02 15:54:00
12:15 PM,42.8,28.4,57,30.00,10.0,North,9.2,18.4,N/A,,Scattered Clouds,360,2012-11-02 16:15:00
12:35 PM,44.6,28.4,53,30.00,10.0,NNW,11.5,18.4,N/A,,Scattered Clouds,330,2012-11-02 16:35:00
12:54 PM,44.6,26.6,49,30.00,10.0,North,9.2,16.1,N/A,,Mostly Cloudy,350,2012-11-02 16:54:00
1:15 PM,42.8,26.6,53,30.00,10.0,North,11.5,-,N/A,,Mostly Cloudy,350,2012-11-02 17:15:00
1:34 PM,44.6,28.4,53,30.00,10.0,NNW,8.1,-,N/A,,Overcast,330,2012-11-02 17:34:00
1:54 PM,44.6,28.4,53,30.00,10.0,NNW,10.4,-,N/A,,Overcast,340,2012-11-02 17:54:00
2:15 PM,44.6,28.4,53,30.00,10.0,NW,11.5,19.6,N/A,,Mostly Cloudy,310,2012-11-02 18:15:00
2:34 PM,44.6,28.4,53,30.00,10.0,NW,11.5,17.3,N/A,,Overcast,310,2012-11-02 18:34:00
2:55 PM,42.8,28.4,57,30.01,10.0,NW,9.2,-,N/A,,Mostly Cloudy,320,2012-11-02 18:55:00
3:15 PM,44.6,28.4,53,30.01,10.0,NNW,9.2,21.9,N/A,,Overcast,330,2012-11-02 19:15:00
3:34 PM,42.8,28.4,57,30.01,10.0,NW,13.8,19.6,N/A,,Overcast,310,2012-11-02 19:34:00
3:55 PM,42.8,28.4,57,30.01,10.0,NNW,13.8,21.9,N/A,,Overcast,330,2012-11-02 19:55:00
4:15 PM,42.8,28.4,57,30.02,10.0,NNW,13.8,19.6,N/A,,Overcast,340,2012-11-02 20:15:00
4:34 PM,42.8,28.4,57,30.02,10.0,North,9.2,16.1,N/A,,Overcast,350,2012-11-02 20:34:00
4:55 PM,42.8,28.4,57,30.02,10.0,NW,6.9,-,N/A,,Overcast,320,2012-11-02 20:55:00
5:14 PM,42.8,28.4,57,30.03,10.0,NNW,9.2,-,N/A,,Overcast,340,2012-11-02 21:14:00
5:35 PM,42.8,28.4,57,30.03,10.0,NNW,6.9,-,N/A,,Overcast,330,2012-11-02 21:35:00
5:55 PM,42.8,28.4,57,30.03,10.0,NNW,8.1,-,N/A,,Overcast,340,2012-11-02 21:55:00
6:14 PM,42.8,28.4,57,30.03,10.0,NW,5.8,-,N/A,,Overcast,320,2012-11-02 22:14:00
6:35 PM,42.8,28.4,57,30.04,10.0,NNW,8.1,-,N/A,,Overcast,340,2012-11-02 22:35:00
6:55 PM,41.0,30.2,65,30.05,10.0,NNW,4.6,-,N/A,,Overcast,330,2012-11-02 22:55:00
7:14 PM,41.0,30.2,65,30.05,10.0,NNW,6.9,-,N/A,,Overcast,340,2012-11-02 23:14:00
7:35 PM,41.0,30.2,65,30.06,10.0,NW,6.9,-,N/A,,Overcast,310,2012-11-02 23:35:00
7:54 PM,39.2,30.2,70,30.06,10.0,NNW,5.8,-,N/A,,Overcast,340,2012-11-02 23:54:00
8:15 PM,39.2,30.2,70,30.06,10.0,NW,9.2,-,N/A,,Overcast,320,2012-11-03 00:15:00
8:35 PM,39.2,30.2,70,30.06,10.0,NW,9.2,-,N/A,,Overcast,320,2012-11-03 00:35:00
8:54 PM,39.2,30.2,70,30.07,10.0,NW,5.8,-,N/A,,Overcast,310,2012-11-03 00:54:00
9:15 PM,39.2,30.2,70,30.07,10.0,NW,4.6,-,N/A,,Overcast,320,2012-11-03 01:15:00
9:34 PM,39.2,30.2,70,30.07,10.0,NW,5.8,-,N/A,,Overcast,320,2012-11-03 01:34:00
9:55 PM,39.2,30.2,70,30.07,10.0,NW,4.6,-,N/A,,Overcast,320,2012-11-03 01:55:00
10:15 PM,39.2,30.2,70,30.07,10.0,NNW,3.5,-,N/A,,Overcast,340,2012-11-03 02:15:00
10:34 PM,39.2,30.2,70,30.08,10.0,NNW,4.6,-,N/A,,Overcast,330,2012-11-03 02:34:00
10:55 PM,39.2,30.2,70,30.08,10.0,NW,4.6,-,N/A,,Overcast,320,2012-11-03 02:55:00
11:34 PM,37.4,30.2,75,30.10,10.0,NNW,3.5,-,N/A,,Mostly Cloudy,340,2012-11-03 03:34:00
11:55 PM,35.6,30.2,81,30.10,10.0,North,4.6,-,N/A,,Scattered Clouds,350,2012-11-03 03:55:00